[[{"header":{"parameterUnit":"m.s-1","parameterCategory":1,"la1":30.2991,"la2":30.254,"lo1":-89.0895,"lo2":-89.0444,"dy":0.0017,"dx":0.0017,"nx":28,"ny":28,"refTime":"2024-08-04T21:00:00:Z","depth":0,"parameterNumber":2,"parameterNumberName":"U-component_of_WINDS"},"data":[0,0,0,0,0,0,0,0,0,0,0,0,0,0,0,0,0,0,0,0,0,0,0,0,0,0,0,0,0,0,0,0,0,0,0,0,0,0,0,0,0,0,0,0,0,0,0,0,0,0,0,0,0,0,0,0,0,0,-0.0817,-0.0819,0,-0.1005,-0.1007,-0.1009,-0.1041,-0.104,-0.1038,-0.1037,-0.1234,-0.1241,-0.1248,0,0,0,0,0,0,0,0,0,0,0,0,0,-0.0492,-0.0498,-0.0817,-0.0819,-0.0822,-0.1005,-0.1007,-0.101,-0.1042,-0.104,-0.1038,-0.1036,-0.1232,-0.124,-0.1248,0,0,0,0,0,0,0,0,0,0,0,0,0,-0.0652,-0.05,-0.0817,-0.086,-0.0865,-0.1004,-0.1007,-0.101,-0.1042,-0.104,-0.1037,-0.1035,-0.123,-0.1239,-0.1249,-0.136,0,0,-0.128,-0.1285,0,0,0,0,0,0,0,0,-0.0643,-0.0664,-0.0851,-0.0857,-0.0863,-0.0997,-0.0965,-0.1128,-0.1043,-0.0975,-0.1037,-0.1034,-0.1158,-0.1174,-0.1214,-0.137,-0.1378,-0.1281,-0.1287,-0.1292,-0.1295,0,0,0,0,0,0,0,-0.0632,-0.0656,-0.0892,-0.0854,-0.0861,-0.0871,-0.0891,-0.0996,-0.1078,-0.0981,-0.0983,-0.1005,-0.1161,-0.1204,-0.1219,-0.1381,-0.1281,-0.129,-0.1296,-0.13,-0.164,-0.1643,0,0,0,0,0,0,-0.0612,-0.0647,-0.0886,-0.0897,-0.0745,-0.0879,-0.0902,-0.0957,-0.1077,-0.1093,-0.1007,-0.1006,-0.1188,-0.1207,-0.1226,-0.1367,-0.1292,-0.1301,-0.1307,-0.1637,-0.1641,-0.1644,0,0,0,0,0,0,-0.0605,-0.0633,-0.0878,-0.0773,-0.0805,-0.0887,-0.0949,-0.0962,-0.1005,-0.1096,-0.1112,-0.1036,-0.1187,-0.1212,-0.1327,-0.1374,-0.1306,-0.1315,-0.1634,-0.1639,-0.1643,-0.1648,0,0,0,0,0,0,-0.0596,-0.063,-0.0672,-0.0773,-0.081,-0.0974,-0.0952,-0.0967,-0.1022,-0.1023,-0.1128,-0.1143,-0.1187,-0.1312,-0.1337,-0.1387,-0.1323,-0.163,-0.1636,-0.1641,-0.1644,-0.1652,-0.1658,0,0,0,0,0,-0.0584,-0.0666,-0.0674,-0.0703,-0.0863,-0.0976,-0.0998,-0.1045,-0.1026,-0.107,-0.1128,-0.114,-0.1364,-0.1323,-0.1352,-0.1406,-0.1628,-0.1634,-0.1641,-0.164,-0.165,-0.1658,0,0,0,0,0,0,-0.057,-0.0681,-0.069,-0.0807,-0.0882,-0.0982,-0.1038,-0.1053,-0.1137,-0.1134,-0.1191,-0.1214,-0.1327,-0.1378,-0.133,-0.1521,-0.1495,-0.1507,-0.1485,-0.1495,-0.1502,-0.1489,-0.1331,0,0,0,0,0,-0.058,-0.0661,-0.0754,-0.0848,-0.0885,-0.0955,-0.1006,-0.1036,-0.1117,-0.1149,-0.1216,-0.1295,-0.1384,-0.1442,-0.1528,-0.165,-0.1675,-0.1701,-0.1708,-0.1714,-0.1726,-0.1797,-0.1811,-0.1666,-0.1666,-0.1666,0,0,-0.0603,-0.0673,-0.0721,-0.0847,-0.0909,-0.0994,-0.0982,-0.1071,-0.1136,-0.1163,-0.1277,-0.1328,-0.1421,-0.1541,-0.1597,-0.1586,-0.1771,-0.1722,-0.1726,-0.1735,-0.1806,-0.1819,-0.1831,-0.167,-0.167,-0.1669,0,0,-0.0689,-0.0748,-0.0835,-0.0897,-0.099,-0.1036,-0.1056,-0.1154,-0.1189,-0.1303,-0.1326,-0.1404,-0.1555,-0.1621,-0.1674,-0.1785,-0.18,-0.1811,-0.1852,-0.1921,-0.1932,-0.1943,-0.1986,-0.2,-0.1822,-0.1822,-0.1822,0,-0.0706,-0.0833,-0.0878,-0.0968,-0.1024,-0.1051,-0.1141,-0.1199,-0.1316,-0.1355,-0.1341,-0.1532,-0.1596,-0.1733,-0.176,-0.1801,-0.1829,-0.1801,-0.1926,-0.1937,-0.1948,-0.199,-0.2006,-0.1823,-0.1823,-0.1823,-0.1823,0,-0.0851,-0.0939,-0.0998,-0.111,-0.1172,-0.1261,-0.1323,-0.1381,-0.1405,-0.1453,-0.1571,-0.1648,-0.1752,-0.1786,-0.1811,-0.1928,-0.1919,-0.1914,-0.189,-0.1962,-0.2003,-0.2019,-0.1824,-0.1824,-0.1824,-0.1824,0,0,-0.0935,-0.107,-0.1092,-0.1144,-0.1248,-0.1318,-0.1409,-0.1509,-0.156,-0.1639,-0.172,-0.1847,-0.1844,-0.1904,-0.1937,-0.1997,-0.2084,-0.1986,-0.1989,-0.2005,-0.2222,-0.2227,-0.2245,-0.2093,-0.2096,-0.2099,-0.2216,0,-0.1036,-0.1198,-0.1242,-0.1381,-0.1465,-0.1491,-0.1572,-0.1646,-0.1693,-0.1773,-0.1825,-0.1916,-0.1903,-0.1941,-0.2001,-0.2061,-0.2129,-0.2052,-0.2172,-0.2176,-0.2152,-0.2265,-0.2271,-0.2377,-0.2231,-0.2234,-0.2236,0,-0.1175,-0.1257,-0.1404,-0.15,-0.1536,-0.1607,-0.1704,-0.1778,-0.1864,-0.1894,-0.1962,-0.1989,-0.2088,-0.2055,-0.2194,-0.2141,-0.2192,-0.2229,-0.2234,-0.2251,-0.2213,-0.2288,-0.2412,-0.2429,-0.2261,-0.2259,-0.2257,0,-0.1227,-0.1373,-0.1481,-0.1524,-0.1637,-0.1687,-0.1737,-0.1819,-0.1877,-0.1962,-0.2001,-0.2096,-0.2149,-0.2223,-0.2277,-0.2247,-0.2413,-0.2383,-0.2444,-0.2443,-0.248,-0.2478,-0.2618,-0.2507,-0.2507,-0.2506,-0.2506,0,-0.1337,-0.1426,-0.1505,-0.1572,-0.1674,-0.1724,-0.1825,-0.1876,-0.1949,-0.2028,-0.2056,-0.213,-0.2194,-0.2277,-0.2319,-0.243,-0.2453,-0.2483,-0.2494,-0.2483,-0.2479,-0.252,-0.2515,-0.2511,-0.251,-0.2509,-0.2508,0,-0.1412,-0.1468,-0.1588,-0.1685,-0.1711,-0.1783,-0.1867,-0.1934,-0.1982,-0.2082,-0.2108,-0.2184,-0.2284,-0.2343,-0.2469,-0.2497,-0.2621,-0.2627,-0.2592,-0.2598,-0.2656,-0.2652,-0.283,-0.2858,-0.2725,-0.2726,-0.2727,0,-0.148,-0.155,-0.1654,-0.1709,-0.1759,-0.1845,-0.1905,-0.1957,-0.2018,-0.2121,-0.2177,-0.2277,-0.2361,-0.2519,-0.2588,-0.2685,-0.2696,-0.2751,-0.2711,-0.2698,-0.2701,-0.2698,-0.2707,-0.2759,-0.2761,-0.2761,-0.2762,0,-0.1597,-0.1621,-0.1704,-0.1799,-0.1868,-0.1945,-0.2022,-0.2065,-0.2131,-0.2198,-0.2299,-0.2364,-0.2493,-0.2594,-0.2697,-0.2751,-0.2769,-0.2774,-0.2794,-0.2785,-0.2764,-0.278,-0.2615,-0.2771,-0.277,-0.2769,-0.2769,-0.2768,-0.1674,-0.1738,-0.1822,-0.1915,-0.1977,-0.2049,-0.2117,-0.2173,-0.2258,-0.2366,-0.2392,-0.2499,-0.2585,-0.2725,-0.2781,-0.2868,-0.2859,-0.2887,-0.2895,-0.2902,-0.2905,-0.2746,-0.2886,-0.2886,-0.2886,-0.2886,-0.2886,0,-0.1795,-0.185,-0.1934,-0.2041,-0.2114,-0.2122,-0.2208,-0.227,-0.2363,-0.2441,-0.2523,-0.2641,-0.2739,-0.2814,-0.2916,-0.2971,-0.2982,-0.2996,-0.2995,-0.3007,-0.2905,-0.288,-0.2985,-0.2985,-0.2985,-0.2985,-0.2985,-0.2985,-0.1866,-0.1977,-0.2011,-0.2154,-0.2209,-0.2314,-0.2362,-0.2429,-0.2492,-0.2622,-0.2703,-0.2751,-0.2829,-0.2936,-0.3028,-0.3047,-0.3085,-0.3099,-0.312,-0.3025,-0.3014,-0.3004,-0.298,-0.3105,-0.3106,-0.3216,-0.3217,-0.3218]},{"header":{"parameterUnit":"m.s-1","parameterCategory":1,"la1":30.2991,"la2":30.254,"lo1":-89.0895,"lo2":-89.0444,"dy":0.0017,"dx":0.0017,"nx":28,"ny":28,"refTime":"2024-08-04T21:00:00:Z","depth":0,"parameterNumber":3,"parameterNumberName":"V-component_of_WINDS"},"data":[0,0,0,0,0,0,0,0,0,0,0,0,0,0,0,0,0,0,0,0,0,0,0,0,0,0,0,0,0,0,0,0,0,0,0,0,0,0,0,0,0,0,0,0,0,0,0,0,0,0,0,0,0,0,0,0,0,0,-3.7875,-3.7877,0,-3.8087,-3.809,-3.8092,-3.8097,-3.8094,-3.8092,-3.8089,-3.8305,-3.8313,-3.8321,0,0,0,0,0,0,0,0,0,0,0,0,0,-3.7473,-3.748,-3.7875,-3.7878,-3.788,-3.8087,-3.809,-3.8093,-3.8097,-3.8094,-3.8091,-3.8088,-3.8302,-3.8312,-3.8321,0,0,0,0,0,0,0,0,0,0,0,0,0,-3.7662,-3.7483,-3.7874,-3.7908,-3.7913,-3.8086,-3.809,-3.8093,-3.8098,-3.8094,-3.809,-3.8086,-3.8299,-3.8311,-3.8323,-3.8477,0,0,-3.836,-3.8366,0,0,0,0,0,0,0,0,-3.7652,-3.7677,-3.79,-3.7906,-3.7912,-3.8062,-3.8027,-3.8222,-3.8099,-3.8028,-3.8089,-3.8085,-3.8227,-3.8245,-3.8293,-3.8487,-3.8496,-3.8361,-3.8369,-3.8374,-3.8377,0,0,0,0,0,0,0,-3.7639,-3.7668,-3.7959,-3.7903,-3.791,-3.7911,-3.7934,-3.8064,-3.8147,-3.8034,-3.8034,-3.806,-3.8229,-3.8281,-3.8298,-3.85,-3.8361,-3.8372,-3.8379,-3.8384,-3.8832,-3.8837,0,0,0,0,0,0,-3.7619,-3.7657,-3.7952,-3.7965,-3.7769,-3.7922,-3.7947,-3.8017,-3.8145,-3.8161,-3.8063,-3.8059,-3.8262,-3.8284,-3.8306,-3.8497,-3.8374,-3.8385,-3.8392,-3.8828,-3.8833,-3.8838,0,0,0,0,0,0,-3.761,-3.7645,-3.7944,-3.7812,-3.785,-3.7933,-3.8012,-3.8024,-3.8076,-3.8167,-3.8182,-3.8101,-3.826,-3.8289,-3.8435,-3.8504,-3.8391,-3.8402,-3.8823,-3.883,-3.8836,-3.8878,0,0,0,0,0,0,-3.7599,-3.7642,-3.7702,-3.7813,-3.7857,-3.807,-3.8016,-3.8031,-3.8097,-3.8094,-3.8207,-3.8222,-3.8259,-3.8417,-3.8447,-3.8519,-3.8412,-3.8817,-3.8826,-3.8834,-3.8871,-3.8885,-3.8898,0,0,0,0,0,-3.7584,-3.7704,-3.7705,-3.774,-3.7933,-3.8074,-3.8099,-3.814,-3.8103,-3.8163,-3.8222,-3.8218,-3.8491,-3.8432,-3.8466,-3.8542,-3.8813,-3.8823,-3.8833,-3.8865,-3.8882,-3.8897,0,0,0,0,0,0,-3.7598,-3.772,-3.7721,-3.7881,-3.7967,-3.8074,-3.8152,-3.8157,-3.8255,-3.8248,-3.8294,-3.832,-3.8466,-3.8518,-3.845,-3.8699,-3.8647,-3.8665,-3.866,-3.8677,-3.869,-3.8675,-3.8422,0,0,0,0,0,-3.762,-3.7725,-3.7824,-3.7956,-3.7999,-3.8068,-3.8131,-3.8155,-3.8246,-3.8282,-3.8352,-3.8439,-3.8545,-3.8614,-3.8716,-3.8878,-3.8903,-3.8947,-3.8961,-3.8971,-3.8986,-3.9078,-3.9099,-3.8872,-3.8872,-3.8872,0,0,-3.7666,-3.7745,-3.7808,-3.7961,-3.803,-3.8137,-3.8099,-3.8213,-3.8293,-3.8299,-3.8443,-3.8497,-3.8598,-3.8753,-3.8825,-3.8801,-3.9055,-3.8984,-3.8992,-3.9002,-3.909,-3.9112,-3.9131,-3.8879,-3.8878,-3.8877,0,0,-3.7805,-3.7875,-3.7993,-3.8063,-3.817,-3.8215,-3.8243,-3.835,-3.8387,-3.8531,-3.8539,-3.8634,-3.8814,-3.8887,-3.8947,-3.9114,-3.9115,-3.9146,-3.9217,-3.9305,-3.9323,-3.9339,-3.9401,-3.9422,-3.916,-3.9161,-3.9161,0,-3.7848,-3.8011,-3.8052,-3.8168,-3.8235,-3.8246,-3.8366,-3.8433,-3.8566,-3.8613,-3.8584,-3.8813,-3.8881,-3.9054,-3.9095,-3.9143,-3.9178,-3.9134,-3.9317,-3.9334,-3.935,-3.9409,-3.9431,-3.9164,-3.9164,-3.9163,-3.9163,0,-3.806,-3.8172,-3.8255,-3.8385,-3.8461,-3.8578,-3.8638,-3.871,-3.8727,-3.8776,-3.8923,-3.9006,-3.9126,-3.9168,-3.9186,-3.9345,-3.9327,-3.9308,-3.9257,-3.9374,-3.943,-3.9453,-3.9169,-3.9167,-3.9166,-3.9166,0,0,-3.8214,-3.8367,-3.8396,-3.8456,-3.8575,-3.8662,-3.878,-3.8898,-3.896,-3.9051,-3.9152,-3.9305,-3.9288,-3.9357,-3.9383,-3.946,-3.9589,-3.9431,-3.9434,-3.9459,-3.977,-3.9785,-3.9811,-3.9589,-3.9594,-3.9597,-3.9762,0,-3.8367,-3.8578,-3.8619,-3.8802,-3.8907,-3.8919,-3.9021,-3.9105,-3.9153,-3.9249,-3.9302,-3.941,-3.9379,-3.9421,-3.9498,-3.9557,-3.9652,-3.9545,-3.9684,-3.9688,-3.966,-3.984,-3.9856,-4.0008,-3.9784,-3.9788,-3.9791,0,-3.8574,-3.8672,-3.8866,-3.8972,-3.9017,-3.9109,-3.9221,-3.9313,-3.9408,-3.9437,-3.9514,-3.9532,-3.9655,-3.9597,-3.9768,-3.9694,-3.9753,-3.979,-3.9797,-3.9813,-3.9748,-3.9862,-4.0058,-4.0081,-3.9825,-3.9823,-3.982,0,-3.8669,-3.885,-3.899,-3.904,-3.9166,-3.9231,-3.9286,-3.9378,-3.9446,-3.9544,-3.9589,-3.9699,-3.976,-3.9845,-3.9892,-3.9846,-4.006,-4.0005,-4.0088,-4.0087,-4.0134,-4.0131,-4.0343,-4.0169,-4.0169,-4.0168,-4.0168,0,-3.8837,-3.8955,-3.9034,-3.9121,-3.9254,-3.9299,-3.943,-3.9484,-3.9566,-3.9663,-3.9679,-3.9769,-3.9825,-3.9924,-3.9961,-4.0097,-4.0124,-4.0151,-4.016,-4.0151,-4.0148,-4.0192,-4.0183,-4.0174,-4.0173,-4.0172,-4.0171,0,-3.8966,-3.9024,-3.9178,-3.9285,-3.9314,-3.9408,-3.95,-3.9584,-3.9632,-3.9755,-3.9786,-3.9861,-3.9978,-4.0033,-4.0177,-4.0203,-4.0358,-4.0359,-4.0326,-4.033,-4.041,-4.0403,-4.066,-4.0697,-4.0496,-4.0498,-4.0499,0,-3.907,-3.9162,-3.928,-3.9346,-3.9404,-3.951,-3.9581,-3.9629,-3.9702,-3.9818,-3.9889,-4.0006,-4.0103,-4.0289,-4.0357,-4.0468,-4.0472,-4.0555,-4.0489,-4.0477,-4.0476,-4.047,-4.048,-4.0567,-4.0569,-4.057,-4.0572,0,-3.925,-3.9274,-3.9376,-3.9488,-3.9572,-3.9663,-3.9751,-3.9805,-3.9867,-3.9948,-4.0069,-4.0144,-4.0292,-4.0409,-4.0525,-4.0581,-4.0588,-4.0592,-4.0617,-4.061,-4.0588,-4.0603,-4.0361,-4.0586,-4.0585,-4.0583,-4.0583,-4.0582,-3.9371,-3.9454,-3.955,-3.9663,-3.9735,-3.9818,-3.9903,-3.9962,-4.0064,-4.0189,-4.0211,-4.0339,-4.0432,-4.0588,-4.0649,-4.075,-4.0731,-4.0767,-4.0776,-4.0785,-4.0791,-4.057,-4.0771,-4.077,-4.077,-4.077,-4.0769,0,-3.9553,-3.9615,-3.9719,-3.9843,-3.9933,-3.9931,-4.0029,-4.0104,-4.0217,-4.0304,-4.0399,-4.0538,-4.0652,-4.0728,-4.0844,-4.091,-4.0916,-4.0939,-4.0935,-4.0948,-4.08,-4.0768,-4.0932,-4.0932,-4.0932,-4.0932,-4.0932,-4.0932,-3.9658,-3.9798,-3.9834,-4.001,-4.0072,-4.0199,-4.0255,-4.0332,-4.0402,-4.0556,-4.0652,-4.0701,-4.0784,-4.0906,-4.101,-4.103,-4.1072,-4.1096,-4.1115,-4.0976,-4.0959,-4.0942,-4.0912,-4.1104,-4.1104,-4.1255,-4.1257,-4.1258]}]]